Regional Weather Roundup
Issued by NWS

Home | Current Version | Previous Version | Text Only | Print | Product List | Glossary Off
Versions: 1 2 3 4 5 6 7 8 9 10 11 12 13 14 15 16 17 18 19 20 21 22 23 24 25 26 27 28 29 30 31 32 33 34 35 36 37 38 39 40 41 42 43 44 45 46 47 48 49 50

000
ASUS43 KTOP 271459
RWRKS

WEATHER ROUNDUP FOR KANSAS
NATIONAL WEATHER SERVICE GOODLAND KS
1000 AM CDT WED JUL 27 2016

NOTE:  "FAIR" INDICATES FEW OR NO CLOUDS BELOW 12,000 FEET WITH NO
SIGNIFICANT WEATHER AND/OR OBSTRUCTIONS TO VISIBILITY.

KSZ001>006-013>018-027>032-041>047-271600-
NORTHWEST KANSAS

CITY           SKY/WX    TMP DP  RH WIND       PRES   REMARKS
GOODLAND       MOSUNNY   72  64  76 S15       30.12S
HAYS           CLOUDY    79  61  53 CALM      30.02R
HILL CITY      CLOUDY    77  62  59 CALM      30.04R
RUSSELL        CLOUDY    78  71  79 CALM      30.02R
$$

KSZ061>065-074>080-084>089-271600-
SOUTHWEST KANSAS

CITY           SKY/WX    TMP DP  RH WIND       PRES   REMARKS
DODGE CITY     MOSUNNY   77  70  79 S13       30.04F
ELKHART          N/A     75  66  73 SE13        N/A
GARDEN CITY    MOSUNNY   75  68  78 SE13      30.07R
GREAT BEND     CLOUDY    75  68  78 N8        30.01R
LIBERAL        CLOUDY    81  70  69 SE9       30.09S
$$

KSZ066>073-081>083-090>101-271600-
SOUTHEAST KANSAS

CITY           SKY/WX    TMP DP  RH WIND       PRES   REMARKS
CHANUTE        CLOUDY    81  73  76 S8        29.98F
COFFEYVILLE    CLOUDY    78  74  87 NW3       30.00S
HUTCHINSON     CLOUDY    80  73  79 SW7       29.99S
NEWTON         PTSUNNY   78  73  84 S8        30.01R
PARSONS        PTSUNNY   80  73  79 CALM      29.99F
WICHITA INTL   CLOUDY    81  73  76 S9        29.97F
WICHITA JABRA  PTSUNNY   80  74  81 S9        29.97F
WICHITA MCCONL PTSUNNY   80  73  80 S12       29.98F
WINFIELD       MOSUNNY   80  74  81 SE7       30.00F
$$

KSZ007>012-019>026-033>040-048>060-102>105-271600-
NORTHEAST KANSAS

CITY           SKY/WX    TMP DP  RH WIND       PRES   REMARKS
CONCORDIA      PTSUNNY   77  69  76 CALM      30.03R
EMPORIA        SUNNY     81  73  76 S9        29.98S
LAWRENCE       SUNNY     80  72  76 SE6       29.99R
MANHATTAN      SUNNY     81  71  71 SW5       29.99R
OLATHE IND     PTSUNNY   82  72  71 E3        30.01R
OLATHE EXE     CLOUDY    80  71  74 CALM      30.01R
SALINA         CLOUDY    83  72  69 S7        29.99R
TOPEKA BILLARD SUNNY     82  71  69 SE12      29.96F
TOPEKA FORBES  SUNNY     83  72  69 SE10      29.96F
$$




USA.gov is the U.S. government's official web portal to all federal, state and local government web resources and services.